Temperature
8 8 8 8 9 10 10 11 11 11 11 11 10 11 12 12 12 11 11 10 10 10 9 9 9 8 8 9 9 9 9 10 10 10 10 11 11 11 12 12 12 12 12 13
8 7 8 9 10 10 10 10 10 10 11 11 10 10 11 12 11 11 10 10 9 9 8 8 8 8 8 8 8 8 9 9 9 9 9 10 10 10 11 11 11 12 12 12
7 8 9 9 9 10 10 9 9 9 10 10 10 10 11 11 11 10 10 9 9 8 8 7 7 7 7 7 8 8 8 8 9 9 9 9 9 10 10 10 11 11 12 12
8 8 9 9 9 9 9 10 10 9 8 9 10 8 10 10 10 10 10 9 8 7 7 7 6 6 7 7 7 7 8 8 8 8 8 8 8 9 9 9 10 11 11 11
8 8 8 8 9 9 9 9 9 9 8 8 9 8 9 10 9 9 9 8 7 7 6 6 6 6 6 6 7 7 7 7 8 7 8 8 8 8 8 9 9 10 10 11
8 8 8 9 9 9 9 9 9 9 8 8 9 8 8 9 9 9 9 8 7 6 6 5 5 5 6 6 6 6 7 7 7 7 7 7 7 8 8 8 9 9 10 10
8 8 9 9 8 8 8 8 8 8 7 8 10 9 8 9 9 8 8 7 7 6 5 5 5 5 5 5 6 6 6 6 7 7 7 7 7 7 7 8 8 8 9 9
7 7 8 9 9 8 9 8 7 8 8 9 9 8 8 9 9 8 7 7 6 6 5 5 4 4 4 5 5 6 6 6 6 6 6 6 7 7 7 7 7 8 8 8
7 7 9 9 9 9 9 8 9 8 8 8 9 9 9 9 8 8 7 7 6 6 5 5 4 4 4 4 4 5 5 5 5 6 6 6 6 6 6 7 7 7 7 8
8 7 9 9 9 9 9 9 8 7 8 8 9 9 8 7 7 8 7 7 6 6 5 4 4 4 4 4 4 4 4 4 5 5 5 5 6 6 6 6 6 6 7 7
8 7 8 8 8 8 8 8 8 8 8 8 8 8 9 8 8 8 7 7 6 5 5 4 4 4 4 4 4 4 4 4 4 4 5 5 5 5 5 6 6 6 6 7
8 8 7 8 9 9 9 9 8 7 8 8 7 7 9 8 8 8 8 7 6 6 5 4 4 4 4 3 3 3 4 4 4 4 4 4 4 5 5 5 5 5 6 6
8 7 7 8 8 8 8 9 9 8 7 7 7 8 9 9 8 8 7 7 6 6 5 4 4 4 3 3 3 3 3 3 3 3 4 4 4 4 4 4 5 5 5 5
8 7 7 7 8 8 8 8 9 8 6 7 7 8 8 8 8 8 8 7 6 6 5 4 4 3 3 3 3 3 3 3 3 3 3 3 3 3 3 4 4 4 5 5
8 7 7 8 9 9 8 8 8 7 7 7 7 8 8 8 8 8 8 7 6 6 5 5 4 4 3 3 3 3 3 2 2 3 3 3 3 3 3 3 3 3 4 4
7 7 7 7 8 9 8 8 8 8 8 8 8 8 9 9 9 8 8 7 6 6 5 5 4 4 3 3 3 3 2 2 2 2 2 2 2 2 2 3 3 3 3 3
7 7 6 6 9 8 7 8 8 8 9 8 8 8 9 8 8 8 7 7 6 6 5 4 4 3 3 3 3 2 2 2 2 2 2 2 2 2 2 2 2 2 2 2
6 6 6 6 7 6 9 10 9 9 9 9 9 9 9 8 8 8 7 7 6 6 5 5 4 4 3 3 3 2 2 2 2 1 1 1 1 1 1 1 1 1 1 1
6 6 6 6 6 7 9 9 9 8 8 9 9 9 9 8 8 7 7 7 6 6 5 5 4 4 3 3 3 2 2 2 1 1 1 1 1 1 1 1 1 1 1 1
6 6 5 6 6 7 9 8 9 8 7 9 9 8 8 8 5 6 7 7 6 6 5 5 4 4 3 3 3 2 2 2 1 1 1 1 0 0 0 0 0 -0 -0 -0
5 5 5 5 6 7 9 8 8 7 8 9 9 9 8 7 6 7 7 6 6 5 5 4 4 4 3 3 3 2 2 1 1 1 1 0 0 -0 -0 -0 -1 -1 -1 -1
6 5 5 6 5 6 7 7 7 8 9 9 8 8 8 7 7 7 6 6 5 5 5 4 4 4 3 3 2 2 2 1 1 1 0 0 -0 -0 -1 -1 -1 -1 -2 -2
6 7 7 7 7 9 9 8 9 8 8 8 8 7 7 7 6 6 6 5 5 5 4 4 4 3 3 3 2 2 1 1 1 0 0 -0 -1 -1 -1 -1 -1 -2 -2 -2
7 7 6 6 7 9 9 9 9 8 8 7 7 7 6 6 6 5 5 5 5 4 4 4 4 3 3 3 2 2 1 1 1 0 -0 -1 -1 -1 -1 -2 -2 -3 -3 -3
6 6 5 5 6 8 9 9 8 8 7 7 6 6 6 5 5 5 5 5 4 4 4 4 3 3 3 2 2 1 1 1 0 0 -0 -1 -1 -2 -2 -2 -3 -3 -4 -4
5 5 5 5 7 7 8 8 7 7 6 6 6 6 5 5 5 5 4 4 4 4 4 3 3 3 3 2 2 1 1 0 0 -0 -1 -1 -2 -2 -2 -3 -3 -3 -4 -4
Wind_Speed
1 2 3 3 0 3 1 2 2 3 2 2 5 5 4 2 1 2 3 4 4 5 6 6 6 6 7 6 7 7 6 6 4 4 3 4 4 4 4 4 5 7 7 7
3 4 5 3 1 2 1 2 2 2 1 3 4 6 5 2 2 1 2 4 5 7 8 8 8 7 6 7 7 7 6 5 4 3 3 3 4 4 4 4 5 6 7 7
6 5 3 2 2 2 1 1 1 1 3 5 4 5 4 3 3 1 1 3 5 6 8 9 10 9 8 8 7 8 7 6 5 4 3 4 3 3 4 4 5 5 6 6
5 3 1 2 2 1 1 3 1 1 2 2 2 3 2 4 2 0 2 3 5 7 8 9 10 10 9 9 7 7 7 6 4 3 3 4 4 4 5 4 4 5 5 5
3 2 1 2 2 3 2 2 2 2 3 3 4 3 3 3 1 1 2 4 5 7 8 9 9 10 9 9 8 7 7 6 5 4 3 4 5 5 4 4 4 4 4 5
3 2 3 2 2 2 1 2 3 3 2 3 4 4 2 1 1 2 3 4 5 6 7 8 8 9 9 9 8 7 7 6 6 4 4 4 5 5 5 5 4 4 3 3
2 2 1 1 1 2 2 1 1 2 3 3 4 3 3 1 3 3 3 4 5 5 6 8 9 9 10 10 10 8 8 7 6 6 4 4 4 4 5 5 4 3 3 2
1 1 2 1 1 1 1 2 2 2 1 0 2 3 1 4 3 3 2 2 4 5 5 7 8 8 9 10 10 10 9 8 7 7 6 5 4 3 3 3 3 3 3 2
2 1 2 1 1 2 1 1 1 2 3 2 3 2 2 3 2 0 1 1 3 4 5 6 7 7 8 9 9 9 9 9 9 8 8 7 6 5 4 4 4 3 3 3
3 1 1 1 2 2 2 3 1 1 2 3 3 2 2 2 1 1 1 2 3 4 4 5 6 6 6 7 7 8 8 8 8 8 8 7 6 6 5 4 5 5 5 4
3 1 1 2 2 2 2 2 2 3 3 3 3 1 1 2 2 0 1 2 2 3 4 4 5 5 5 6 7 8 8 8 8 9 8 7 6 6 6 6 6 6 5 6
3 2 2 3 1 1 2 2 2 2 3 3 3 2 2 3 3 2 1 1 1 2 2 3 3 4 5 6 6 7 8 8 8 8 8 8 8 7 7 7 7 7 6 6
3 3 3 1 2 1 2 3 3 2 2 3 3 3 2 3 2 2 2 1 0 1 2 2 3 4 5 5 6 6 7 7 7 7 8 8 8 8 8 8 8 8 7 7
3 2 2 3 2 1 3 4 4 4 3 4 4 4 3 3 2 2 2 2 1 1 1 2 3 3 4 5 6 6 7 7 7 7 7 8 8 7 7 7 7 8 7 7
2 3 4 7 7 6 6 6 6 7 7 5 5 5 5 3 3 2 2 2 1 1 1 1 2 3 4 5 5 6 7 7 7 7 7 7 7 7 7 7 7 7 8 8
3 4 5 6 7 7 8 9 9 9 9 10 9 9 4 1 1 1 2 2 2 1 1 1 1 2 3 4 4 5 6 7 7 7 7 7 8 8 8 8 8 8 8 8
3 3 3 4 4 6 7 8 9 7 6 7 8 6 2 1 3 3 3 3 3 2 1 1 1 1 2 2 3 4 5 5 6 7 7 8 8 8 8 8 8 8 8 8
4 3 3 5 5 5 5 2 2 5 7 7 6 4 2 2 3 3 3 4 3 2 2 2 2 2 2 3 3 4 4 5 5 6 7 7 7 7 7 8 8 8 7 7
6 3 3 3 5 8 4 3 3 3 5 6 7 5 4 1 1 3 4 3 3 3 3 3 3 3 3 3 2 3 3 4 5 6 6 6 7 7 7 8 7 6 6 6
4 4 3 3 4 5 2 4 3 1 5 3 4 3 2 3 2 3 3 4 3 4 4 3 4 4 3 2 2 3 3 3 4 4 5 5 6 6 6 6 6 5 5 5
3 5 6 6 6 7 2 5 5 3 3 2 2 2 3 4 4 2 3 3 4 4 4 4 5 4 3 2 2 2 2 2 2 3 4 4 5 5 5 5 5 5 5 5
6 5 6 5 6 8 5 6 5 4 1 1 1 1 2 3 2 2 3 4 4 4 4 5 4 4 3 3 3 2 1 0 1 2 2 3 4 4 4 4 4 5 5 5
7 6 4 6 7 2 7 6 3 1 1 2 1 2 2 3 3 4 4 4 4 5 5 5 5 5 4 4 3 3 2 1 1 1 2 2 3 3 3 4 5 5 5 4
5 5 4 6 8 6 7 7 5 3 3 3 3 3 3 5 5 4 4 4 5 5 5 6 6 6 5 5 4 3 2 1 0 1 2 2 3 3 4 3 3 3 4 4
6 3 5 8 9 9 8 7 5 3 3 3 4 4 5 5 5 5 4 5 5 5 5 6 6 6 6 5 5 4 3 2 1 1 1 1 2 2 3 3 2 2 2 3
9 10 8 9 6 4 3 1 0 2 4 4 4 5 4 4 5 5 5 4 4 5 5 5 6 6 6 5 5 4 4 2 1 1 1 1 1 2 2 3 3 4 4 6
Wind_Direction
99 93 105 123 286 339 73 115 125 97 105 244 246 257 259 236 248 327 340 340 344 345 347 347 343 336 328 321 313 301 296 288 284 282 279 274 271 266 266 254 249 245 237 226
91 68 68 76 34 12 70 101 97 98 133 262 267 270 260 211 137 31 340 346 349 346 348 346 343 340 331 323 319 310 298 289 282 278 275 270 270 268 261 256 252 248 236 225
77 77 81 101 92 101 54 30 78 5 310 253 259 268 207 152 123 110 25 360 351 353 349 344 344 343 337 326 319 315 305 291 279 278 287 295 290 285 277 270 259 247 242 230
71 69 83 93 61 350 76 49 51 297 295 270 240 276 206 157 158 186 16 7 0 2 352 347 346 342 339 333 328 322 315 306 297 287 280 279 277 270 267 266 260 252 245 237
78 76 62 73 38 0 51 13 312 270 271 285 239 241 250 140 188 325 4 7 9 3 352 346 346 342 342 342 338 330 326 320 311 298 279 273 276 277 280 278 269 260 245 239
90 53 18 35 34 5 338 283 259 246 254 254 217 207 263 144 311 337 2 14 4 358 350 347 347 347 348 347 345 341 336 330 329 322 310 290 283 284 289 285 271 272 264 247
84 119 121 273 201 169 244 277 231 199 215 230 167 193 244 120 72 23 10 4 359 2 355 350 350 353 352 349 349 350 350 344 339 333 324 309 296 291 288 292 287 287 279 266
50 109 147 189 329 329 239 292 330 303 302 359 181 220 211 105 90 58 20 351 356 2 357 352 353 356 353 351 353 355 352 352 351 348 340 332 322 308 308 316 315 308 302 299
20 47 105 102 352 322 294 261 349 310 296 272 228 196 171 118 117 72 306 345 358 357 356 353 355 360 358 357 357 355 356 359 1 0 356 355 352 347 348 347 343 334 338 337
349 312 212 161 202 223 293 327 316 273 298 285 240 217 232 189 242 272 310 16 7 2 1 2 6 6 2 359 359 3 4 2 3 5 3 360 1 4 5 8 4 359 356 354
320 302 224 193 213 204 194 227 249 266 275 288 296 285 77 132 135 156 10 38 26 7 9 9 8 8 3 3 7 6 3 6 9 7 4 3 4 8 11 16 11 7 6 5
344 310 267 224 144 342 256 247 239 267 283 258 275 271 110 129 144 147 127 56 36 22 9 15 16 10 8 8 9 10 7 10 8 5 9 13 12 16 19 17 10 9 13 14
339 312 302 223 169 200 255 250 247 268 302 278 267 245 161 169 176 177 184 199 217 16 357 10 20 16 13 11 13 13 11 11 8 9 15 17 20 22 21 17 13 15 20 22
324 286 275 292 319 291 260 250 228 216 226 260 248 254 230 228 234 219 204 206 196 155 53 18 12 20 21 19 18 15 12 9 8 12 17 17 16 16 15 14 17 19 23 26
296 284 281 283 283 274 262 257 237 222 226 241 268 276 273 250 242 229 202 194 198 148 89 44 20 17 21 25 21 19 16 12 12 15 18 16 11 12 13 15 18 21 26 27
298 292 302 279 256 258 262 251 240 237 233 243 261 273 263 211 185 207 215 209 222 225 172 92 57 40 29 25 23 25 20 18 20 20 19 18 18 16 15 15 17 21 23 22
283 298 307 286 295 296 271 240 219 218 216 223 242 247 212 222 234 232 230 222 225 220 167 145 126 89 56 42 36 32 23 23 24 21 20 21 19 18 14 15 19 18 17 17
265 285 269 289 318 265 241 106 164 222 237 224 235 252 242 240 235 229 223 216 215 184 164 152 130 107 83 64 52 44 36 29 28 23 21 19 17 17 16 21 21 17 16 16
218 255 277 281 285 277 236 179 170 209 261 222 223 235 227 208 340 267 219 189 185 164 147 143 136 122 102 80 66 58 41 30 29 22 15 14 14 13 14 16 13 11 13 15
205 229 253 261 268 263 248 132 111 102 272 213 180 202 195 150 238 259 150 144 150 142 140 138 130 115 111 96 82 71 44 31 21 9 5 7 8 11 12 7 4 3 6 4
195 216 225 239 253 266 197 138 131 183 245 123 134 167 180 196 214 183 146 154 160 155 152 146 137 135 136 119 104 98 63 30 4 359 4 5 3 4 6 2 359 353 351 349
200 209 210 207 227 251 161 149 193 217 121 128 161 185 219 233 233 187 176 178 173 169 167 160 152 154 146 136 138 145 152 14 8 358 360 357 356 357 1 353 347 346 346 349
212 217 227 218 225 224 175 201 214 145 251 257 247 254 245 248 241 230 213 200 192 187 182 171 166 167 163 159 160 175 186 131 8 348 349 347 347 349 351 350 349 346 350 355
238 207 238 268 266 256 227 229 232 221 239 254 253 252 246 247 247 242 226 212 202 194 187 177 173 181 185 176 171 174 153 135 104 333 335 340 342 344 350 354 359 357 354 353
250 231 227 253 269 279 256 231 228 231 236 254 261 251 242 244 248 242 237 223 209 199 186 178 183 191 190 173 171 164 151 147 183 267 315 331 340 343 340 343 348 350 339 337
217 220 219 237 237 239 254 159 105 256 255 257 261 265 261 247 248 244 237 225 211 197 185 183 187 189 183 171 170 163 155 158 176 257 311 333 339 337 339 339 335 332 323 330
Height
1483 1485 1487 1487 1487 1486 1485 1485 1487 1490 1491 1493 1492 1491 1489 1488 1489 1490 1490 1490 1489 1489 1488 1486 1484 1481 1479 1477 1476 1474 1473 1472 1472 1471 1471 1471 1472 1473 1475 1476 1478 1480 1482 1484
1487 1489 1489 1488 1488 1487 1487 1489 1491 1492 1492 1492 1491 1489 1486 1486 1487 1489 1489 1489 1489 1487 1486 1484 1481 1478 1476 1474 1472 1470 1469 1468 1468 1467 1467 1467 1468 1469 1470 1471 1472 1474 1476 1478
1488 1492 1490 1490 1490 1489 1490 1492 1493 1494 1493 1491 1492 1489 1483 1484 1486 1488 1488 1488 1488 1486 1484 1482 1479 1476 1473 1471 1469 1467 1465 1464 1464 1464 1464 1464 1464 1464 1464 1465 1466 1468 1470 1472
1491 1492 1492 1491 1492 1491 1494 1492 1493 1495 1497 1495 1492 1497 1484 1483 1485 1486 1487 1487 1486 1485 1483 1480 1477 1474 1471 1468 1466 1464 1462 1461 1460 1460 1460 1460 1459 1459 1459 1460 1462 1463 1464 1466
1493 1494 1493 1493 1494 1493 1495 1494 1494 1495 1497 1498 1491 1496 1488 1482 1485 1485 1485 1486 1485 1483 1481 1478 1475 1472 1469 1466 1463 1461 1459 1458 1457 1457 1457 1456 1456 1456 1456 1457 1457 1458 1459 1460
1494 1495 1495 1495 1495 1495 1495 1495 1495 1495 1497 1499 1489 1493 1490 1485 1484 1484 1484 1485 1484 1482 1480 1477 1474 1470 1467 1464 1461 1459 1457 1455 1454 1454 1453 1453 1453 1452 1452 1452 1452 1453 1454 1455
1495 1495 1496 1496 1496 1496 1497 1499 1499 1499 1499 1493 1484 1489 1489 1483 1482 1483 1484 1484 1483 1481 1479 1475 1472 1469 1465 1462 1460 1457 1455 1453 1452 1451 1451 1450 1449 1449 1449 1448 1449 1449 1450 1450
1498 1499 1495 1496 1496 1496 1495 1497 1501 1499 1494 1490 1486 1489 1485 1481 1482 1483 1484 1484 1482 1480 1478 1475 1472 1468 1465 1462 1459 1456 1454 1452 1451 1449 1448 1447 1447 1446 1445 1445 1445 1446 1446 1447
1498 1499 1495 1495 1495 1496 1495 1495 1495 1499 1494 1495 1486 1482 1481 1481 1482 1483 1483 1482 1481 1480 1477 1474 1471 1467 1464 1461 1459 1456 1453 1451 1449 1448 1447 1445 1444 1443 1443 1442 1442 1442 1443 1443
1498 1500 1495 1495 1496 1496 1497 1495 1498 1499 1497 1491 1483 1482 1484 1482 1482 1481 1481 1481 1480 1479 1476 1474 1471 1468 1465 1462 1459 1456 1453 1451 1449 1447 1446 1444 1442 1441 1440 1440 1439 1440 1440 1440
1498 1499 1497 1495 1495 1494 1497 1496 1495 1495 1494 1496 1490 1488 1479 1479 1479 1480 1480 1480 1479 1478 1476 1474 1471 1468 1465 1462 1459 1457 1454 1451 1449 1447 1445 1443 1441 1440 1439 1438 1438 1438 1438 1438
1499 1499 1498 1494 1491 1491 1492 1492 1494 1498 1494 1490 1493 1492 1478 1478 1478 1479 1479 1479 1479 1477 1476 1473 1471 1468 1466 1463 1460 1457 1454 1451 1449 1447 1445 1442 1440 1439 1438 1438 1437 1437 1437 1436
1500 1500 1500 1495 1497 1495 1493 1491 1491 1493 1495 1494 1493 1489 1478 1477 1477 1477 1478 1478 1477 1476 1475 1473 1471 1468 1466 1463 1461 1458 1455 1453 1450 1448 1445 1443 1441 1439 1439 1438 1437 1436 1436 1435
1501 1501 1502 1500 1494 1492 1492 1490 1489 1492 1497 1493 1486 1482 1478 1476 1476 1476 1476 1476 1476 1475 1474 1473 1471 1468 1466 1464 1461 1459 1456 1454 1451 1449 1446 1444 1442 1441 1439 1438 1437 1436 1435 1434
1501 1500 1496 1494 1489 1488 1488 1487 1486 1488 1488 1489 1482 1478 1475 1474 1474 1474 1474 1474 1474 1474 1473 1472 1470 1468 1466 1464 1462 1460 1457 1455 1453 1450 1448 1446 1444 1442 1441 1439 1438 1436 1435 1434
1501 1500 1497 1494 1486 1484 1484 1481 1480 1481 1480 1480 1478 1476 1471 1471 1471 1472 1472 1472 1472 1472 1471 1471 1469 1468 1466 1464 1462 1460 1458 1456 1454 1452 1449 1447 1445 1444 1442 1440 1439 1437 1435 1434
1500 1499 1498 1494 1482 1482 1482 1472 1473 1473 1471 1473 1475 1472 1469 1470 1470 1470 1470 1470 1470 1470 1469 1469 1468 1467 1465 1464 1462 1460 1459 1457 1454 1452 1450 1448 1446 1444 1443 1441 1439 1437 1436 1434
1500 1499 1499 1495 1490 1492 1472 1464 1465 1467 1466 1467 1466 1466 1466 1467 1467 1467 1467 1467 1467 1468 1467 1467 1466 1466 1465 1464 1462 1460 1459 1457 1455 1453 1451 1449 1447 1445 1443 1441 1439 1438 1436 1434
1498 1499 1498 1496 1492 1480 1466 1464 1465 1467 1465 1461 1462 1463 1464 1465 1465 1465 1465 1465 1465 1466 1465 1465 1465 1464 1463 1463 1461 1460 1458 1457 1455 1453 1451 1449 1447 1446 1444 1442 1440 1438 1436 1434
1496 1498 1500 1495 1492 1483 1465 1464 1463 1467 1467 1458 1458 1460 1462 1463 1467 1464 1462 1463 1463 1463 1463 1463 1463 1462 1462 1461 1460 1459 1458 1456 1455 1453 1452 1450 1448 1446 1444 1442 1440 1438 1436 1434
1498 1498 1498 1496 1490 1475 1463 1462 1464 1471 1465 1458 1458 1459 1460 1461 1462 1462 1460 1460 1461 1461 1461 1461 1461 1460 1460 1459 1459 1458 1457 1456 1455 1453 1452 1450 1448 1446 1445 1443 1441 1439 1436 1435
1489 1490 1489 1487 1487 1477 1461 1462 1464 1461 1458 1457 1458 1458 1458 1458 1458 1458 1458 1458 1458 1458 1458 1458 1458 1457 1457 1457 1457 1456 1455 1455 1454 1452 1451 1450 1448 1446 1444 1443 1440 1438 1436 1434
1479 1477 1475 1473 1469 1459 1457 1457 1456 1456 1456 1456 1456 1456 1456 1456 1455 1455 1455 1454 1454 1455 1455 1455 1454 1454 1454 1454 1454 1454 1454 1453 1452 1451 1450 1449 1447 1445 1444 1442 1439 1437 1435 1433
1470 1468 1470 1467 1457 1454 1454 1454 1454 1454 1453 1453 1453 1453 1453 1452 1452 1451 1451 1451 1451 1451 1451 1451 1451 1451 1451 1451 1451 1452 1451 1451 1450 1449 1448 1447 1446 1444 1442 1440 1438 1436 1434 1432
1468 1465 1466 1462 1455 1453 1449 1449 1449 1450 1449 1450 1450 1449 1449 1448 1448 1447 1447 1447 1446 1446 1447 1447 1447 1447 1448 1448 1448 1449 1449 1448 1448 1447 1446 1445 1444 1442 1440 1439 1437 1435 1433 1431
1459 1460 1460 1455 1449 1449 1446 1446 1446 1446 1446 1445 1445 1445 1445 1444 1444 1443 1443 1442 1442 1442 1442 1443 1443 1444 1444 1445 1445 1445 1445 1445 1445 1444 1443 1442 1441 1440 1438 1436 1435 1433 1431 1429